Plymouth, NH

11:08 AM EST on January 17, 2018 (GMT -0500)
Plymouth

Weather History for K1P1 - December, 2012

Change the Weather History Date:

Saturday, December 1, 2012

  Actual Average (KLCI) Record (KLCI)
Temperature  
Mean Temperature 24 °F -  
Max Temperature 27 °F 39 °F 60 °F (2001)
Min Temperature 20 °F 25 °F 8 °F (1989)
Degree Days  
Heating Degree Days 42    
Moisture  
Dew Point 18 °F    
Average Humidity 81    
Maximum Humidity 99    
Minimum Humidity 58    
Precipitation  
Precipitation 0.00 in - - ()
Sea Level Pressure  
Sea Level Pressure 30.57 in    
Wind  
Wind Speed 0 mph (SE)    
Max Wind Speed 4 mph    
Max Gust Speed -    
Visibility 6 miles    
Events Snow    
Averages and records for this station are not official NWS values.
T = Trace of Precipitation, MM = Missing Value Source: NWS Daily Summary

Daily Weather History Graph

Daily Weather History Graph

Search for Another Location

Airport or City:

Trip Planner

Search our weather history database for the weather conditions in past years. The results will help you decide how hot, cold, wet, or windy it might be!

Date:

Astronomy

Dec. 01, 2012 Rise Set
Actual Time 7:01 AM EST 4:10 PM EST
Civil Twilight 6:29 AM EST 4:43 PM EST
Nautical Twilight 5:53 AM EST 5:18 PM EST
Astronomical Twilight 5:18 AM EST 5:53 PM EST
Moon 6:59 PM EST (12/1) 9:11 AM EST (12/1)
Length of Visible Light 10h 13m
Length of Day
9h 09m
Waning Gibbous, 92% of the Moon is Illuminated
Dec 1
Waning Gibbous
Dec 6
Last Quarter
Dec 13
New
Dec 20
First Quarter
Dec 28
Full

Hourly Weather History & Observations

Time (EST) Temp. Windchill Dew Point Humidity Pressure Visibility Wind Dir Wind Speed Gust Speed Precip Events Conditions
12:15 AM 20.1 °F 15.2 °F 7.9 °F 59% 30.57 in 10.0 mi NW 3.5 mph - N/A   Overcast
12:35 AM 20.1 °F - 8.2 °F 60% 30.57 in 10.0 mi Calm Calm - N/A   Overcast
12:55 AM 20.1 °F - 7.9 °F 59% 30.57 in 10.0 mi Calm Calm - N/A   Overcast
1:15 AM 20.3 °F - 8.1 °F 59% 30.57 in 10.0 mi Calm Calm - N/A   Overcast
1:35 AM 20.3 °F - 7.9 °F 59% 30.57 in 10.0 mi Calm Calm - N/A   Overcast
1:55 AM 20.3 °F - 8.2 °F 60% 30.57 in 10.0 mi Calm Calm - N/A   Overcast
2:15 AM 20.3 °F - 8.1 °F 59% 30.57 in 10.0 mi Calm Calm - N/A   Overcast
2:35 AM 20.5 °F - 8.4 °F 60% 30.57 in 10.0 mi Calm Calm - N/A   Overcast
2:55 AM 20.8 °F - 8.2 °F 58% 30.57 in 10.0 mi Calm Calm - N/A   Overcast
3:15 AM 20.8 °F - 8.6 °F 59% 30.57 in 10.0 mi Calm Calm - N/A   Overcast
3:35 AM 21.2 °F - 9.3 °F 60% 30.57 in 10.0 mi Calm Calm - N/A   Overcast
3:55 AM 21.2 °F - 8.8 °F 59% 30.57 in 10.0 mi Calm Calm - N/A   Overcast
4:15 AM 21.6 °F - 9.3 °F 59% 30.58 in 10.0 mi Calm Calm - N/A   Overcast
4:35 AM 21.6 °F - 9.9 °F 61% 30.58 in 10.0 mi Calm Calm - N/A   Overcast
4:55 AM 21.6 °F - 10.0 °F 61% 30.58 in 10.0 mi Calm Calm - N/A   Overcast
5:15 AM 21.9 °F - 10.8 °F 62% 30.58 in 10.0 mi Calm Calm - N/A   Overcast
5:35 AM 22.1 °F - 10.8 °F 62% 30.59 in 10.0 mi Calm Calm - N/A   Overcast
5:55 AM 22.1 °F - 10.9 °F 62% 30.59 in 10.0 mi Calm Calm - N/A   Overcast
6:15 AM 22.5 °F - 11.7 °F 63% 30.59 in 10.0 mi Calm Calm - N/A   Overcast
6:35 AM 22.5 °F - 12.4 °F 65% 30.60 in 10.0 mi Calm Calm - N/A   Overcast
6:55 AM 22.1 °F - 12.4 °F 66% 30.60 in 10.0 mi Calm Calm - N/A Snow Light Snow
7:15 AM 22.1 °F - 13.5 °F 69% 30.60 in 10.0 mi Calm Calm - N/A   Overcast
7:35 AM 22.1 °F - 13.3 °F 69% 30.61 in 7.0 mi Calm Calm - N/A Snow Light Snow
7:55 AM 21.9 °F - 14.9 °F 74% 30.62 in 3.0 mi Calm Calm - N/A Snow Light Snow
8:15 AM 21.9 °F - 14.9 °F 74% 30.62 in 10.0 mi Calm Calm - N/A Snow Light Snow
8:35 AM 22.1 °F - 15.8 °F 77% 30.62 in 10.0 mi Calm Calm - N/A   Overcast
8:55 AM 22.1 °F - 16.0 °F 77% 30.63 in 7.0 mi Calm Calm - N/A Snow Light Snow
9:15 AM 21.9 °F 17.2 °F 17.1 °F 82% 30.62 in 3.0 mi SE 3.5 mph - N/A Snow Light Snow
9:35 AM 21.9 °F 17.2 °F 17.8 °F 84% 30.63 in 3.0 mi ESE 3.5 mph - N/A Snow Light Snow
9:55 AM 22.1 °F - 18.5 °F 86% 30.63 in 3.0 mi Calm Calm - N/A Snow Light Snow
10:15 AM 22.1 °F - 18.9 °F 87% 30.63 in 2.0 mi Calm Calm - N/A Snow Light Snow
10:35 AM 22.5 °F - 18.5 °F 85% 30.62 in 7.0 mi Calm Calm - N/A   Overcast
10:55 AM 22.8 °F - 19.0 °F 85% 30.61 in 3.0 mi Calm Calm - N/A Snow Light Snow
11:15 AM 23.0 °F - 19.2 °F 85% 30.60 in 4.0 mi Calm Calm - N/A Snow Light Snow
11:35 AM 23.2 °F - 19.8 °F 87% 30.59 in 4.0 mi Calm Calm - N/A Snow Light Snow
11:55 AM 23.4 °F - 19.4 °F 85% 30.59 in 3.0 mi Calm Calm - N/A Snow Light Snow
12:15 PM 23.4 °F - 20.1 °F 87% 30.58 in 2.5 mi Calm Calm - N/A Snow Light Snow
12:35 PM 23.5 °F - 20.3 °F 87% 30.57 in 2.0 mi Calm Calm - N/A Snow Light Snow
12:55 PM 23.5 °F - 20.8 °F 89% 30.57 in 1.8 mi Calm Calm - N/A Snow Light Snow
1:15 PM 23.9 °F - 21.2 °F 89% 30.57 in 1.8 mi Calm Calm - N/A Snow Light Snow
1:35 PM 24.1 °F - 21.7 °F 91% 30.56 in 2.5 mi Calm Calm - N/A Snow Light Snow
1:55 PM 23.9 °F - 21.4 °F 90% 30.56 in 2.5 mi Calm Calm - N/A Snow Light Snow
2:15 PM 23.9 °F - 21.2 °F 89% 30.57 in 4.0 mi Calm Calm - N/A Snow Light Snow
2:35 PM 24.4 °F - 21.7 °F 89% 30.57 in 5.0 mi Calm Calm - N/A   Overcast
2:55 PM 24.4 °F - 21.9 °F 90% 30.56 in 4.0 mi Calm Calm - N/A   Overcast
3:15 PM 24.6 °F - 22.1 °F 90% 30.57 in 3.0 mi Calm Calm - N/A Snow Light Snow
3:35 PM 24.8 °F - 22.3 °F 90% 30.57 in 3.0 mi Calm Calm - N/A Snow Light Snow
3:55 PM 24.8 °F - 22.5 °F 91% 30.58 in 3.0 mi Calm Calm - N/A Snow Light Snow
4:15 PM 24.8 °F - 22.8 °F 92% 30.57 in 4.0 mi Calm Calm - N/A Snow Light Snow
4:35 PM 24.8 °F - 22.8 °F 92% 30.57 in 4.0 mi Calm Calm - N/A Snow Light Snow
4:55 PM 24.8 °F - 23.0 °F 93% 30.57 in 5.0 mi Calm Calm - N/A Snow Light Snow
5:15 PM 24.8 °F - 23.2 °F 94% 30.57 in 4.0 mi Calm Calm - N/A Snow Light Snow
5:35 PM 24.8 °F - 23.4 °F 94% 30.57 in 2.5 mi Calm Calm - N/A Snow Light Snow
5:55 PM 24.8 °F - 23.5 °F 95% 30.56 in 2.5 mi Calm Calm - N/A Snow Light Snow
6:15 PM 25.0 °F - 23.9 °F 96% 30.56 in 1.8 mi Calm Calm - N/A Snow Light Snow
6:35 PM 25.0 °F - 23.9 °F 96% 30.56 in 2.0 mi Calm Calm - N/A Snow Light Snow
6:55 PM 25.3 °F - 24.1 °F 95% 30.57 in 2.0 mi Calm Calm - N/A Snow Light Snow
7:15 PM 25.2 °F - 23.9 °F 95% 30.56 in 3.0 mi Calm Calm - N/A Snow Light Snow
7:35 PM 25.3 °F - 24.3 °F 96% 30.56 in 5.0 mi Calm Calm - N/A   Overcast
7:55 PM 25.3 °F - 24.4 °F 96% 30.56 in 4.0 mi Calm Calm - N/A   Overcast
8:15 PM 25.5 °F - 24.6 °F 96% 30.56 in 4.0 mi Calm Calm - N/A   Overcast
8:35 PM 25.5 °F - 24.8 °F 97% 30.55 in 3.0 mi Calm Calm - N/A Snow Light Snow
8:55 PM 25.5 °F - 24.8 °F 97% 30.54 in 3.0 mi Calm Calm - N/A   Overcast
9:15 PM 25.7 °F - 25.2 °F 98% 30.54 in 2.5 mi Calm Calm - N/A   Overcast
9:35 PM 25.7 °F - 25.3 °F 99% 30.53 in 2.0 mi Calm Calm - N/A   Overcast
9:55 PM 26.1 °F - 25.7 °F 99% 30.52 in 2.5 mi Calm Calm - N/A   Overcast
10:15 PM 26.2 °F - 25.7 °F 98% 30.51 in 2.5 mi Calm Calm - N/A   Overcast
10:35 PM 26.2 °F - 25.7 °F 98% 30.51 in 3.0 mi Calm Calm - N/A   Overcast
10:55 PM 26.6 °F - 26.1 °F 98% 30.51 in 2.5 mi Calm Calm - N/A   Overcast
11:15 PM 26.6 °F - 26.1 °F 98% 30.51 in 4.0 mi Calm Calm - N/A   Overcast
11:35 PM 27.0 °F - 26.4 °F 98% 30.51 in 2.0 mi Calm Calm - N/A   Overcast
11:55 PM 27.1 °F - 26.6 °F 98% 30.50 in 2.0 mi Calm Calm - N/A   Overcast